Meteopurmerend
purmerend
Purmerend - Baaienwijk



My webcam  My webcam


waarschuwing voor Onweer Meer informatie blitzortung!


Regen radar Meer informatie rain snow radar


Bezoek onze andere website:

CandyAppleRed WebdesignWebdesign Purmerend Candy Apple Red

MeteopurmerendBlog

Template documentation
and downloads



Onweer van: 19-06-2019 10:00 tot: 23:00 waarschuwing voor: Onweer niveau: Geel info button
Enkele onweersbuien, mogelijk met hagel en windstoten tot ca. 75 km/uur.Verkeer en buitenactiviteiten kunnen hinder ondervinden.Mijd open water en open gebied, schuil niet onder bomen.Volg weerberichten en waarschuwingen.

15 daagse weersverwachting Seinäjoki (FI)

  • Overzicht
  • Per uur
  • 15 dagen
  • Extra
  • Vergelijk
  • Kaarten
  • Dagkaart
  • Meer »
  • Info
  • Statistieken
  • Directe link
    Temp 6h Neerslag Wind  
 03:29     23:35    Daglengte: 20:06 Vandaag
15:00
23°
 
6
21:00
19°
 
3
 03:29     23:35    Daglengte: 20:06 Morgen
03:00
13°
 
1
09:00
17°
 
1
15:00
23°
0.2 mm
2
21:00
23°
 
2
 03:29     23:36    Daglengte: 20:07 Vrijdag 21 Jun
03:00
18°
0.8 mm
3
09:00
21°
 
4
15:00
23°
1.5 mm
5
21:00
19°
 
4
 03:29     23:36    Daglengte: 20:07 Zaterdag 22 Jun
03:00
14°
 
4
09:00
16°
 
6
Locatie info
Region: Etelä-Pohjanmaa
Latitude: 62.7907°N
Longitude: 22.8396°E
50 masl
Postcode: 60100
Temp/Neerslag /Baro Onweer/Dauwpunt
    Temp Baro 1h Neerslag Dauwpunt Wind UV Bewolking  
 03:29     23:35    Daglengte: 20:06 Vandaag
15:00
23°
1009.5 hPa   10.3°
6
Windvlaag: 9.5 m/s
15%
16:00
22°
1009.6 hPa   8.7°
5
Windvlaag: 9 m/s
14%
17:00
22°
1009.6 hPa   7.8°
5
Windvlaag: 8.5 m/s
12%
18:00
22°
1009.8 hPa   6.7°
5
Windvlaag: 7.9 m/s
7%
19:00
21°
1009.9 hPa   7.0°
4
Windvlaag: 7.7 m/s
47%
20:00
20°
1010.0 hPa   7.8°
4
Windvlaag: 6.6 m/s
9%
21:00
19°
1010.2 hPa   8.7°
3
Windvlaag: 5.6 m/s
10%
22:00
18°
1010.7 hPa   9.8°
2
Windvlaag: 4.4 m/s
18%
23:00
17°
1011.1 hPa   10.7°
1
Windvlaag: 2.9 m/s
18%
 03:29     23:35    Daglengte: 20:06 Morgen
00:00
15°
1011.3 hPa   10.9°
1
Windvlaag: 1.9 m/s
12%
01:00
15°
1011.6 hPa   10.9°
1
Windvlaag: 1.9 m/s
18%
02:00
14°
1011.7 hPa   11.1°
1
Windvlaag: 1.7 m/s
50%
03:00
13°
1011.8 hPa   10.9°
1
Windvlaag: 1.5 m/s
33%
04:00
13°
1011.9 hPa   10.6°
1
Windvlaag: 1.2 m/s
49%
05:00
13°
1011.9 hPa   10.7°
1
Windvlaag: 1 m/s
43%
06:00
13°
1011.9 hPa   10.9°
1
Windvlaag: 0.9 m/s
62%
07:00
15°
1011.8 hPa   11.4°
1
Windvlaag: 1.7 m/s
66%
08:00
16°
1011.8 hPa   11.2°
1
Windvlaag: 2.7 m/s
68%
09:00
17°
1011.7 hPa   11.0°
1
Windvlaag: 2.8 m/s
68%
10:00
19°
1011.2 hPa   10.3°
2
Windvlaag: 3.5 m/s
73%
11:00
20°
1011.0 hPa
51%
10.3°
2
Windvlaag: 4.5 m/s
45%
12:00
21°
1011.2 hPa
23%
12.3°
3
Windvlaag: 6.4 m/s
62%
13:00
21°
1010.9 hPa
17%
15.4°
2
Windvlaag: 5.6 m/s
57%
14:00
22°
1010.5 hPa
69%
15.4°
2
Windvlaag: 4.6 m/s
57%
15:00
23°
1010.2 hPa 0.2 mm
75%
16.2°
2
Windvlaag: 5.4 m/s
48%
16:00
23°
1009.6 hPa
80%
14.7°
2
Windvlaag: 5.7 m/s
44%
17:00
23°
1009.1 hPa
29%
14.1°
2
Windvlaag: 5.4 m/s
57%
18:00
24°
1008.3 hPa
24%
13.4°
2
Windvlaag: 5.5 m/s
23%
19:00
24°
1007.8 hPa
76%
12.5°
3
Windvlaag: 5.7 m/s
39%
20:00
24°
1007.6 hPa
36%
13.8°
3
Windvlaag: 6.6 m/s
50%
21:00
23°
1007.6 hPa
52%
14.8°
2
Windvlaag: 6.1 m/s
57%
22:00
22°
1007.1 hPa
14%
15.0°
2
Windvlaag: 6.8 m/s
47%
23:00
20°
1006.9 hPa
14%
15.8°
2
Windvlaag: 4.2 m/s
57%
 03:29     23:36    Daglengte: 20:07 Vrijdag 21 Jun
00:00
19°
1006.8 hPa
14%
15.1°
2
Windvlaag: 5 m/s
40%
01:00
19°
1006.6 hPa
14%
14.8°
3
Windvlaag: 7.8 m/s
52%
02:00
18°
1006.8 hPa 0.8 mm
14%
16.6°
2
Windvlaag: 6.5 m/s
49%
03:00
18°
1006.5 hPa
14%
15.8°
3
Windvlaag: 5.3 m/s
9%
04:00
17°
1006.5 hPa
74%
15.6°
3
Windvlaag: 5.7 m/s
56%
05:00
17°
1006.3 hPa
82%
15.7°
3
Windvlaag: 5.3 m/s
31%
06:00
18°
1006.1 hPa
65%
15.6°
3
Windvlaag: 6 m/s
24%
07:00
19°
1005.8 hPa
67%
15.9°
3
Windvlaag: 6.6 m/s
39%
08:00
20°
1005.6 hPa
77%
16.4°
3
Windvlaag: 7.2 m/s
36%
09:00
21°
1005.5 hPa
67%
16.8°
4
Windvlaag: 7.2 m/s
67%
10:00
21°
1005.5 hPa
62%
18.1°
4
Windvlaag: 7.1 m/s
43%
11:00
22°
1005.6 hPa
82%
17.9°
4
Windvlaag: 6.7 m/s
72%
12:00
22°
1006.0 hPa 0.8 mm
100%
16.5°
4
Windvlaag: 7.7 m/s
88%
13:00
22°
1005.9 hPa 0.7 mm
97%
15.7°
4
Windvlaag: 7.6 m/s
93%
14:00
23°
1006.0 hPa
25%
15.1°
5
Windvlaag: 8.7 m/s
89%
15:00
23°
1006.1 hPa
21%
14.4°
5
Windvlaag: 9.3 m/s
93%
16:00
22°
1006.2 hPa
21%
12.7°
6
Windvlaag: 9.1 m/s
67%
17:00
22°
1006.1 hPa
21%
11.7°
6
Windvlaag: 9.1 m/s
17%
18:00
21°
1006.2 hPa
21%
11.1°
6
Windvlaag: 9.4 m/s
1%
19:00
21°
1006.3 hPa
21%
10.2°
6
Windvlaag: 9.8 m/s
0%
20:00
20°
1006.4 hPa
21%
7.9°
5
Windvlaag: 9.3 m/s
0%
21:00
19°
1006.6 hPa
21%
8.2°
4
Windvlaag: 8 m/s
2%
22:00
18°
1006.6 hPa
21%
8.8°
4
Windvlaag: 6.8 m/s
0%
23:00
17°
1006.5 hPa
21%
8.0°
3
Windvlaag: 6.2 m/s
0%
 03:29     23:36    Daglengte: 20:07 Zaterdag 22 Jun
00:00
16°
1006.5 hPa
21%
7.4°
4
Windvlaag: 6.3 m/s
0%
01:00
15°
1006.5 hPa
21%
7.1°
4
Windvlaag: 7 m/s
0%
02:00
14°
1006.6 hPa
21%
6.8°
4
Windvlaag: 7.3 m/s
0%
03:00
14°
1006.6 hPa
21%
6.7°
4
Windvlaag: 7 m/s
0%
04:00
13°
1006.3 hPa
21%
6.5°
4
Windvlaag: 3.9 m/s
0%
05:00
13°
1006.1 hPa
21%
6.7°
4
Windvlaag: 4.1 m/s
0%
06:00
13°
1006.0 hPa
21%
7.1°
4
Windvlaag: 3.7 m/s
0%
07:00
14°
1006.0 hPa
21%
7.7°
5
Windvlaag: 4.6 m/s
0%
08:00
15°
1005.9 hPa
21%
8.2°
5
Windvlaag: 4.8 m/s
0%
09:00
16°
1006.0 hPa
22%
8.3°
6
Windvlaag: 5 m/s
9%
10:00
16°
1006.5 hPa 1.1 mm
100%
8.1°
6
Windvlaag: 13.2 m/s
20%
11:00
16°
1007.0 hPa 1.1 mm
100%
8.5°
6
Windvlaag: 13.3 m/s
25%
12:00
16°
1007.4 hPa 1.1 mm
99%
8.9°
6
Windvlaag: 12.2 m/s
46%
13:00
16°
1007.8 hPa 1.1 mm
100%
9.6°
6
Windvlaag: 11.6 m/s
26%
14:00
16°
1008.2 hPa
100%
9.8°
7
Windvlaag: 11.7 m/s
27%
Temp/Neerslag /Baro Onweer/Dauwpunt
    Temp Baro Neerslag Dauwpunt Wind Bewolking  
 03:29     23:35    Daglengte: 20:06 Vandaag
15:00
23°
1009.5 hPa   10.3°
6
15%
18:00
22°
1009.8 hPa   6.7°
5
7%
21:00
19°
1010.2 hPa   8.7°
3
10%
 03:29     23:35    Daglengte: 20:06 Morgen
00:00
15°
1011.3 hPa   10.9°
1
12%
03:00
13°
1011.8 hPa   10.9°
1
33%
06:00
13°
1011.9 hPa   10.9°
1
62%
09:00
17°
1011.7 hPa   11.0°
1
68%
12:00
21°
1011.2 hPa   12.3°
3
62%
15:00
23°
1010.2 hPa 0.2 mm 16.2°
2
48%
18:00
24°
1008.3 hPa   13.4°
2
23%
21:00
23°
1007.6 hPa   14.8°
2
57%
 03:29     23:36    Daglengte: 20:07 Vrijdag 21 Jun
00:00
19°
1006.8 hPa   15.1°
2
40%
03:00
18°
1006.5 hPa 0.8 mm 15.8°
3
9%
06:00
18°
1006.1 hPa   15.6°
3
24%
09:00
21°
1005.5 hPa   16.8°
4
67%
12:00
22°
1006.0 hPa 0.8 mm 16.5°
4
88%
15:00
23°
1006.1 hPa 0.7 mm 14.4°
5
93%
18:00
21°
1006.2 hPa   11.1°
6
1%
21:00
19°
1006.6 hPa   8.2°
4
2%
 03:29     23:36    Daglengte: 20:07 Zaterdag 22 Jun
00:00
16°
1006.5 hPa   7.4°
4
0%
03:00
14°
1006.6 hPa   6.7°
4
0%
06:00
13°
1006.0 hPa   7.1°
4
0%
09:00
16°
1006.0 hPa   8.3°
6
9%
12:00
16°
1007.4 hPa 3.3 mm 8.9°
6
46%
15:00
16°
1008.7 hPa 3.2 mm 10.1°
7
19%
18:00
16°
1011.2 hPa 4.4 mm 7.8°
5
56%
21:00
16°
1012.2 hPa 4.4 mm 6.8°
5
67%
 03:30     23:36    Daglengte: 20:06 Zondag 23 Jun
00:00
13°
1014.2 hPa 4.4 mm 6.4°
4
33%
03:00
10°
1016.0 hPa 4.4 mm 5.7°
3
0%
06:00
13°
1016.7 hPa 4.4 mm 5.9°
3
0%
09:00
16°
1017.4 hPa 4.4 mm 5.4°
3
0%
12:00
18°
1017.4 hPa 4.4 mm 5.1°
4
27%
15:00
19°
1017.4 hPa 4.4 mm 4.6°
5
53%
18:00
18°
1018.3 hPa 4.4 mm 5.1°
4
26%
21:00
16°
1019.2 hPa 4.4 mm 5.5°
3
0%
 03:30     23:36    Daglengte: 20:06 Maandag 24 Jun
00:00
13°
1020.3 hPa 4.4 mm 6.0°
3
9%
03:00
10°
1021.3 hPa 4.4 mm 5.8°
3
18%
06:00
12°
1022.0 hPa 4.4 mm 6.0°
3
10%
09:00
14°
1022.7 hPa 4.4 mm 6.2°
3
3%
12:00
16°
1023.5 hPa 4.5 mm 6.1°
4
17%
15:00
17°
1024.2 hPa 4.5 mm 5.3°
4
31%
18:00
16°
1025.2 hPa 4.5 mm 6.0°
4
17%
21:00
15°
1026.2 hPa 4.5 mm 6.9°
3
3%
 03:31     23:35    Daglengte: 20:04 Dinsdag 25 Jun
00:00
12°
1027.7 hPa 4.5 mm 7.8°
2
2%
03:00
10°
Voelt als: 8.9°
1029.2 hPa 4.5 mm 7.8°
2
1%
06:00
12°
1029.6 hPa 4.6 mm 8.1°
2
23%
09:00
15°
1030.1 hPa 4.6 mm 7.7°
2
46%
12:00
17°
1029.9 hPa 4.6 mm 6.1°
3
66%
15:00
18°
1029.6 hPa 4.6 mm 3.5°
3
87%
18:00
17°
1029.3 hPa 4.6 mm 4.5°
3
56%
21:00
16°
1028.9 hPa 4.6 mm 5.5°
3
25%
 03:32     23:35    Daglengte: 20:03 Woensdag 26 Jun
00:00
12°
1029.1 hPa 4.6 mm 6.1°
3
13%
03:00
Voelt als: 7.3°
1029.2 hPa 4.6 mm 5.6°
3
0%
06:00
12°
1027.9 hPa 4.6 mm 6.4°
3
43%
09:00
16°
1026.6 hPa 4.6 mm 6.3°
3
85%
12:00
19°
1024.9 hPa   5.7°
4
82%
15:00
21°
1023.2 hPa 9.1 mm 4.5°
4
79%
21:00
15°
1020.0 hPa 9.1 mm 8.4°
2
10%
 03:33     23:34    Daglengte: 20:01 Donderdag 27 Jun
03:00
10°
1016.2 hPa 9.1 mm 7.1°
3
55%
09:00
16°
1012.2 hPa 9.1 mm 7.0°
2
60%
15:00
18°
1008.1 hPa 9.1 mm 3.4°
5
82%
21:00
13°
1006.5 hPa 9.1 mm 7.0°
3
90%
 03:34     23:34    Daglengte: 20:00 Vrijdag 28 Jun
03:00
Voelt als: 7.2°
1006.4 hPa 9.2 mm 7.9°
4
92%
09:00
12°
1009.1 hPa 9.5 mm 4.8°
7
47%
15:00
15°
1010.5 hPa 9.5 mm 0.3°
5
1%
21:00
14°
1010.5 hPa 9.5 mm 2.3°
2
0%
 03:35     23:33    Daglengte: 19:58 Zaterdag 29 Jun
03:00
Voelt als: 6.0°
1011.3 hPa 9.5 mm 3.3°
2
1%
09:00
15°
1009.6 hPa 0.4 mm 8.3°
1
34%
15:00
18°
1008.6 hPa 1.8 mm 9.1°
2
39%
21:00
16°
1007.9 hPa 0.5 mm 9.5°
2
41%
 03:36     23:32    Daglengte: 19:56 Zondag 30 Jun
03:00
10°
Voelt als: 9.8°
1008.3 hPa 0.4 mm 6.7°
0
35%
09:00
15°
1008.0 hPa 0.4 mm 8.6°
0
34%
15:00
18°
1007.8 hPa 0.7 mm 9.0°
1
40%
21:00
16°
1007.4 hPa 1.0 mm 9.6°
2
30%
 03:38     23:31    Daglengte: 19:53 Maandag 01 Jul
03:00
10°
1007.8 hPa 0.1 mm 6.7°
1
24%
09:00
15°
1007.7 hPa 0.3 mm 9.0°
1
35%
15:00
18°
1007.6 hPa 0.8 mm 9.5°
3
35%
21:00
16°
1007.6 hPa 0.6 mm 10.3°
2
39%
 03:39     23:30    Daglengte: 19:51 Dinsdag 02 Jul
03:00
11°
1008.3 hPa 0.3 mm 7.8°
0
32%
09:00
15°
1008.3 hPa 0.2 mm 9.9°
0
38%
15:00
19°
1008.3 hPa 0.4 mm 10.0°
1
49%
21:00
17°
1008.1 hPa 0.7 mm 10.8°
2
48%
 03:41     23:29    Daglengte: 19:48 Woensdag 03 Jul
03:00
11°
1008.4 hPa 0.4 mm 8.1°
0
37%
09:00
15°
1007.9 hPa 0.8 mm 10.3°
0
39%
15:00
19°
1007.5 hPa 0.7 mm 11.2°
1
48%
21:00
17°
1007.4 hPa 1.8 mm 12.1°
1
51%
 03:42     23:27    Daglengte: 19:45 Donderdag 04 Jul
03:00
12°
1008.1 hPa 0.8 mm 9.6°
1
43%
09:00
16°
1008.7 hPa 0.5 mm 11.1°
1
36%
  CAPE Lifted Index Hail Supercell Tornado SRH 3km CL BTM PRES CL TOP PRES Swiss DWD icon SMHI TS
 03:29     23:35    Daglengte: 20:06 Vandaag
15:00 63 J/kg 0.7 K 0 % 0 % 0 % 0 m²/s² 0 0 5.11 0
16:00 28 J/kg 1.1 K 0 % 0 % 0 % 0 m²/s² 0 0 3.68 0
17:00 7 J/kg 1.7 K 0 % 0 % 0 % 0 m²/s² 0 0 2.63 2
18:00 0 J/kg 2.5 K 0 % 0 % 0 % 0 m²/s² 0 0 3.82 2
19:00 0 J/kg 2.9 K 0 % 0 % 0 % 0 m²/s² 0 0 4.34 2
20:00 0 J/kg 3.6 K 0 % 0 % 0 % 0 m²/s² 0 0 4.92 2
21:00 0 J/kg 3.4 K 0 % 0 % 0 % 0 m²/s² 0 0 4.9 3
22:00 0 J/kg 3.4 K 0 % 0 % 0 % 0 m²/s² 0 0 5.44 3
23:00 0 J/kg 3.7 K 0 % 0 % 0 % 0 m²/s² 0 0 5.74 3
 03:29     23:35    Daglengte: 20:06 Morgen
00:00 0 J/kg 4.4 K 0 % 0 % 0 % 0 m²/s² 0 0 6.05 2
01:00 0 J/kg 5.0 K 0 % 0 % 0 % 0 m²/s² 0 0 6.29 2
02:00 0 J/kg 5.3 K 0 % 0 % 0 % 0 m²/s² 0 0 6.32 3
03:00 0 J/kg 5.6 K 0 % 0 % 0 % 0 m²/s² 0 0 6.29 1
04:00 0 J/kg 5.5 K 0 % 0 % 0 % 0 m²/s² 0 0 6.01 3
05:00 0 J/kg 5.9 K 0 % 0 % 0 % 0 m²/s² 0 0 6.47 2
06:00 0 J/kg 5.9 K 0 % 0 % 0 % 0 m²/s² 0 0 6.38 3
07:00 0 J/kg 5.4 K 0 % 0 % 0 % 0 m²/s² 0 0 5.64 3
08:00 0 J/kg 3.8 K 0 % 0 % 0 % 0 m²/s² 0 0 4.04 2
09:00 0 J/kg 3.1 K 0 % 0 % 0 % 0 m²/s² 0 0 3.43 3
10:00 0 J/kg 3.2 K 0 % 0 % 0 % 0 m²/s² 0 0 3.32 3
11:00 1 J/kg 2.0 K 0 % 0 % 0 % 0 m²/s² 0 0 2.09 3
12:00 129 J/kg 0.5 K 0 % 0 % 0 % 0 m²/s² 0 0 0.53 2
13:00 499 J/kg -1.5 K 0 % 0 % 0 % 0 m²/s² 0 0 -0.9 3
14:00 728 J/kg -2.3 K 0 % 0 % 0 % 0 m²/s² 0 0 -1.73 3
15:00 714 J/kg -2.2 K 0 % 0 % 0 % 0 m²/s² 0 0 -0.34 3
16:00 391 J/kg -1.6 K 0 % 0 % 0 % 0 m²/s² 0 0 -0.37 80
17:00 227 J/kg -0.6 K 0 % 0 % 0 % 0 m²/s² 0 0 -0.18 2
18:00 134 J/kg -0.2 K 0 % 0 % 0 % 0 m²/s² 0 0 0.88 2
19:00 160 J/kg -0.6 K 0 % 0 % 0 % 0 m²/s² 0 0 1.29 1
20:00 233 J/kg -1.3 K 0 % 0 % 0 % 0 m²/s² 0 0 0.98 3
21:00 567 J/kg -2.0 K 0 % 0 % 0 % 0 m²/s² 0 0 0.97 3
22:00 662 J/kg -2.3 K 0 % 0 % 0 % 0 m²/s² 0 0 -0.02 1
23:00 730 J/kg -3.6 K 0 % 0 % 0 % 0 m²/s² 0 0 -1.44 2
 03:29     23:36    Daglengte: 20:07 Vrijdag 21 Jun
00:00 773 J/kg -3.6 K 0 % 0 % 0 % 0 m²/s² 0 0 -1.89 2
01:00 503 J/kg -2.6 K 0 % 0 % 0 % 0 m²/s² 0 0 -1.67 1
02:00 380 J/kg -2.7 K 0 % 0 % 0 % 0 m²/s² 0 0 -1.8 2
03:00 178 J/kg -2.7 K 0 % 0 % 0 % 0 m²/s² 0 0 -1.86 2
04:00 136 J/kg -3.1 K 0 % 0 % 0 % 0 m²/s² 0 0 -2.11 80
05:00 75 J/kg -2.2 K 0 % 0 % 0 % 0 m²/s² 0 0 -0.73 80
06:00 166 J/kg -2.6 K 0 % 0 % 0 % 0 m²/s² 0 0 -1.07 3
07:00 314 J/kg -3.0 K 0 % 0 % 0 % 0 m²/s² 0 0 -1.59 3
08:00 582 J/kg -3.0 K 0 % 0 % 0 % 0 m²/s² 0 0 -1.35 80
09:00 930 J/kg -4.1 K 0 % 0 % 0 % 0 m²/s² 0 0 -2.39 3
10:00 1101 J/kg -4.2 K 0 % 0 % 0 % 0 m²/s² 0 0 -2.31 3
11:00 1065 J/kg -4.1 K 0 % 0 % 0 % 0 m²/s² 0 0 -2 3
12:00 816 J/kg -3.4 K 0 % 0 % 0 % 0 m²/s² 0 0 -0.82 80
13:00 7 J/kg -1.4 K 0 % 0 % 0 % 0 m²/s² 0 0 0.67 3
14:00 13 J/kg 0.0 K 0 % 0 % 0 % 0 m²/s² 0 0 0.12 3
15:00 33 J/kg -0.2 K 0 % 0 % 0 % 0 m²/s² 0 0 1.21 3
16:00 447 J/kg -2.1 K 0 % 0 % 0 % 0 m²/s² 0 0 0.33 3
17:00 476 J/kg -2.2 K 0 % 0 % 0 % 0 m²/s² 0 0 0.53 2
18:00 0 J/kg 0.0 K 0 % 0 % 0 % 0 m²/s² 0 0 3.87 0
19:00 0 J/kg 1.6 K 0 % 0 % 0 % 0 m²/s² 0 0 7 0
20:00 0 J/kg 3.2 K 0 % 0 % 0 % 0 m²/s² 0 0 10.64 0
21:00 0 J/kg 3.1 K 0 % 0 % 0 % 0 m²/s² 0 0 9.46 0
22:00 0 J/kg 3.2 K 0 % 0 % 0 % 0 m²/s² 0 0 9.02 0
23:00 0 J/kg 3.9 K 0 % 0 % 0 % 0 m²/s² 0 0 9.72 0
 03:29     23:36    Daglengte: 20:07 Zaterdag 22 Jun
00:00 0 J/kg 4.4 K 0 % 0 % 0 % 0 m²/s² 0 0 10.37 0
01:00 0 J/kg 4.9 K 0 % 0 % 0 % 0 m²/s² 0 0 11.77 0
02:00 0 J/kg 5.3 K 0 % 0 % 0 % 0 m²/s² 0 0 12.62 0
03:00 0 J/kg 5.6 K 0 % 0 % 0 % 0 m²/s² 0 0 13.43 0
04:00 0 J/kg 4.6 K 0 % 0 % 0 % 0 m²/s² 0 0 12.13 0
05:00 0 J/kg 2.2 K 0 % 0 % 0 % 0 m²/s² 0 0 8.71 0
06:00 0 J/kg 2.2 K 0 % 0 % 0 % 0 m²/s² 0 0 7.21 0
07:00 0 J/kg 0.6 K 0 % 0 % 0 % 0 m²/s² 0 0 3.63 0
08:00 111 J/kg 0.0 K 0 % 0 % 0 % 0 m²/s² 0 0 2.76 1
09:00 280 J/kg -0.8 K 0 % 0 % 0 % 0 m²/s² 0 0 1.9 3
10:00 181 J/kg 0.1 K 0 % 0 % 0 % 0 m²/s² 0 0 2.56 61
11:00 69 J/kg 1.0 K 0 % 0 % 0 % 0 m²/s² 0 0 3.31 61
12:00 66 J/kg 0.9 K 0 % 0 % 0 % 0 m²/s² 0 0 2.43 3
13:00 128 J/kg 0.1 K 0 % 0 % 0 % 0 m²/s² 0 0 1.03 1
14:00 149 J/kg -0.1 K 0 % 0 % 0 % 0 m²/s² 0 0 1.16 0
Temp Baro Wind Neerslag
  EWN Forecast EWN WRFDA DWD ICON FMI HIRLAM MET Norway GFS
 03:29     23:35    Daglengte: 20:06 Vandaag
15:00 22.5° 1009.5 hPa 5.6 m/s 0.0 mm 20.9° 1009.4 hPa 6.3 m/s 0.0 mm 21.6° 1009.8 hPa 6.4 m/s -2.0 mm 23.5° 1009.0 hPa 3.8 m/s 0.0 mm 23.9° 1009.4 hPa 5.6 m/s 22.5° 1009.9 hPa 5.5 m/s
18:00 21.6° 1009.8 hPa 4.7 m/s 0.0 mm 20.3° 1009.9 hPa 5.1 m/s 0.0 mm 20.9° 1010.3 hPa 5.1 m/s 0.0 mm 22.0° 1009.4 hPa 3.3 m/s 0.0 mm 24.1° 1009.5 hPa 4.9 m/s 0.0 mm 21.3° 1010.3 hPa 4.6 m/s
21:00 19.1° 1010.2 hPa 2.9 m/s 0.0 mm 18.6° 1010.0 hPa 3.0 m/s 0.0 mm 18.8° 1010.2 hPa 3.1 m/s 0.0 mm 18.1° 1009.7 hPa 1.5 m/s 0.0 mm 21.9° 1010.2 hPa 3.1 m/s 0.0 mm 18.0° 1010.3 hPa 2.2 m/s
 03:29     23:35    Daglengte: 20:06 Morgen
00:00 15.4° 1011.3 hPa 1.2 m/s 0.0 mm 12.9° 1010.7 hPa 3.0 m/s 0.0 mm 15.6° 1011.6 hPa 1.5 m/s 0.0 mm 13.3° 1010.2 hPa 0.9 m/s 0.0 mm 17.0° 1011.4 hPa 0.1 m/s 0.0 mm 12.9° 1011.3 hPa 1.8 m/s
03:00 13.3° 1011.8 hPa 1.0 m/s 0.0 mm 10.2° 1011.5 hPa 2.2 m/s 0.0 mm 14.1° 1012.2 hPa 0.8 m/s 0.0 mm 10.6° 1010.3 hPa 0.9 m/s 0.0 mm 13.7° 1011.9 hPa 0.8 m/s 0.0 mm 11.0° 1011.8 hPa 0.5 m/s
06:00 13.2° 1011.9 hPa 0.7 m/s 0.0 mm 13.1° 1011.4 hPa 0.3 m/s 0.0 mm 14.3° 1012.2 hPa 0.8 m/s 0.0 mm 11.3° 1010.7 hPa 0.6 m/s 0.0 mm 13.5° 1012.0 hPa 0.7 m/s 0.0 mm 13.5° 1011.5 hPa 1.7 m/s
09:00 17.2° 1011.7 hPa 1.2 m/s 0.0 mm 18.8° 1010.8 hPa 1.8 m/s 0.0 mm 17.4° 1012.0 hPa 1.1 m/s 0.0 mm 13.7° 1010.6 hPa 0.9 m/s 0.0 mm 19.0° 1011.8 hPa 1.5 m/s 0.0 mm 19.3° 1011.2 hPa 2.3 m/s
12:00 21.1° 1011.2 hPa 2.6 m/s 0.0 mm 18.2° 1011.1 hPa 2.0 m/s 0.3 mm 20.4° 1011.6 hPa 2.5 m/s 0.0 mm 22.4° 1010.0 hPa 0.6 m/s 0.0 mm 21.7° 1011.4 hPa 4.7 m/s 0.0 mm 20.6° 1011.0 hPa 3.0 m/s
15:00 22.8° 1010.2 hPa 2.5 m/s 0.2 mm 23.3° 1009.7 hPa 1.9 m/s 1.6 mm 21.8° 1010.8 hPa 4.3 m/s 0.1 mm 23.6° 1008.9 hPa 2.7 m/s 0.0 mm 22.9° 1010.5 hPa 2.2 m/s 0.0 mm 23.9° 1009.9 hPa 2.3 m/s
18:00 24.1° 1008.3 hPa 2.0 m/s 0.0 mm 24.8° 1008.1 hPa 2.0 m/s 2.2 mm 24.0° 1009.5 hPa 2.3 m/s 0.3 mm 22.6° 1008.0 hPa 0.8 m/s 0.0 mm 26.3° 1008.1 hPa 2.4 m/s 0.0 mm 24.3° 1009.0 hPa 0.6 m/s
21:00 23.2° 1007.6 hPa 2.5 m/s 0.0 mm 23.3° 1006.6 hPa 2.7 m/s 2.6 mm 23.3° 1008.7 hPa 1.4 m/s 0.0 mm 21.7° 1006.7 hPa 1.9 m/s 0.0 mm 25.0° 1007.6 hPa 3.1 m/s 0.0 mm 21.1° 1007.8 hPa 1.4 m/s
 03:29     23:36    Daglengte: 20:07 Vrijdag 21 Jun
00:00 19.4° 1006.8 hPa 2.3 m/s 0.0 mm 19.0° 1007.1 hPa 1.9 m/s 4.3 mm 20.1° 1007.6 hPa 2.8 m/s 0.0 mm 15.4° 1006.2 hPa 0.4 m/s 0.0 mm 21.0° 1006.3 hPa 2.8 m/s 0.0 mm 16.6° 1007.7 hPa 2.4 m/s
03:00 17.8° 1006.5 hPa 2.7 m/s 0.8 mm 17.4° 1006.3 hPa 4.1 m/s 5.4 mm 18.6° 1007.2 hPa 3.0 m/s 0.0 mm 15.5° 1005.8 hPa 1.7 m/s 0.0 mm 18.5° 1006.5 hPa 2.3 m/s 0.9 mm 16.3° 1006.7 hPa 3.1 m/s
06:00 17.6° 1006.1 hPa 3.4 m/s 0.0 mm 18.9° 1005.2 hPa 4.7 m/s 5.4 mm 17.5° 1007.6 hPa 3.9 m/s 0.8 mm 16.2° 1005.0 hPa 2.0 m/s 0.0 mm 18.9° 1006.1 hPa 3.0 m/s 0.0 mm 16.6° 1005.9 hPa 3.3 m/s
09:00 20.7° 1005.5 hPa 3.6 m/s 0.0 mm 21.2° 1004.5 hPa 4.4 m/s 5.5 mm 20.6° 1006.5 hPa 5.5 m/s 0.3 mm 22.0° 1003.3 hPa 2.5 m/s 0.0 mm 20.7° 1005.7 hPa 3.1 m/s 0.0 mm 20.0° 1005.4 hPa 3.7 m/s
12:00 22.2° 1006.0 hPa 4.2 m/s 0.8 mm 20.7° 1004.9 hPa 5.3 m/s 7.0 mm 22.1° 1007.3 hPa 5.4 m/s 0.6 mm 24.0° 1005.9 hPa 3.4 m/s 0.0 mm 21.5° 1006.2 hPa 4.1 m/s
15:00 22.6° 1006.1 hPa 5.4 m/s 0.7 mm 20.4° 1004.1 hPa 3.6 m/s 8.4 mm 22.6° 1007.4 hPa 6.0 m/s 0.1 mm 24.6° 1006.1 hPa 5.7 m/s 0.0 mm 23.3° 1006.4 hPa 5.3 m/s
18:00 21.5° 1006.2 hPa 5.7 m/s 0.0 mm 20.7° 1004.0 hPa 6.0 m/s 9.0 mm 21.3° 1007.7 hPa 5.8 m/s 0.0 mm 23.0° 1006.2 hPa 5.8 m/s 0.0 mm 21.2° 1006.6 hPa 5.3 m/s
21:00 18.9° 1006.6 hPa 4.5 m/s 0.0 mm 18.6° 1003.2 hPa 4.6 m/s 9.0 mm 18.8° 1008.0 hPa 4.6 m/s 0.0 mm 19.9° 1006.7 hPa 3.7 m/s 0.0 mm 17.4° 1006.3 hPa 3.2 m/s
 03:29     23:36    Daglengte: 20:07 Zaterdag 22 Jun
00:00 15.6° 1006.5 hPa 3.5 m/s 0.0 mm 14.0° 1002.8 hPa 5.3 m/s 9.0 mm 15.3° 1007.7 hPa 3.5 m/s 0.0 mm 16.9° 1006.7 hPa 2.5 m/s 0.0 mm 13.7° 1006.6 hPa 4.0 m/s
03:00 13.9° 1006.6 hPa 3.8 m/s 0.0 mm 11.9° 1002.4 hPa 5.6 m/s 9.0 mm 13.4° 1007.6 hPa 3.9 m/s 0.0 mm 14.9° 1006.8 hPa 3.5 m/s 0.0 mm 12.8° 1006.6 hPa 4.2 m/s
06:00 13.4° 1006.0 hPa 4.2 m/s 0.0 mm 13.4° 1003.0 hPa 6.7 m/s 9.0 mm 13.4° 1007.1 hPa 3.1 m/s 0.0 mm 13.7° 1006.1 hPa 4.1 m/s 0.0 mm 13.0° 1006.6 hPa 4.6 m/s
09:00 16.1° 1006.0 hPa 5.7 m/s 0.0 mm 15.0° 1004.0 hPa 7.6 m/s 9.0 mm 16.7° 1006.7 hPa 5.3 m/s 0.0 mm 16.3° 1006.1 hPa 5.7 m/s 0.0 mm 15.5° 1007.4 hPa 6.3 m/s
12:00 15.6° 1007.4 hPa 6.1 m/s 3.3 mm 13.6° 1007.3 hPa 8.1 m/s 9.0 mm 15.6° 1007.1 hPa 6.2 m/s 0.4 mm 15.9° 1007.5 hPa 5.7 m/s 17.1° 1009.5 hPa 6.8 m/s
15:00 16.3° 1008.7 hPa 7.1 m/s 3.2 mm 16.6° 1010.6 hPa 8.5 m/s 9.1 mm 17.7° 1006.5 hPa 8.4 m/s 0.2 mm 15.6° 1008.9 hPa 5.7 m/s 17.8° 1011.5 hPa 6.1 m/s
18:00 15.7° 1011.2 hPa 5.2 m/s 4.4 mm 15.5° 1010.9 hPa 5.1 m/s 18.1° 1014.0 hPa 6.3 m/s 4.4 mm
21:00 15.5° 1012.2 hPa 4.7 m/s 4.4 mm 15.5° 1011.9 hPa 4.8 m/s 15.7° 1016.0 hPa 3.2 m/s 4.4 mm
 03:30     23:36    Daglengte: 20:06 Zondag 23 Jun
00:00 12.8° 1014.2 hPa 4.0 m/s 4.4 mm 13.0° 1013.8 hPa 4.2 m/s 10.4° 1018.4 hPa 2.6 m/s 4.4 mm
03:00 10.4° 1016.0 hPa 3.4 m/s 4.4 mm 10.5° 1015.7 hPa 3.5 m/s 8.9° 1019.6 hPa 1.9 m/s 4.4 mm
06:00 13.1° 1016.7 hPa 3.2 m/s 4.4 mm 13.2° 1016.4 hPa 3.5 m/s 11.0° 1020.3 hPa 1.0 m/s 4.4 mm
09:00 16.1° 1017.4 hPa 3.2 m/s 4.4 mm 16.0° 1017.1 hPa 3.4 m/s 17.0° 1020.6 hPa 0.5 m/s 4.4 mm
12:00 17.7° 1017.4 hPa 3.9 m/s 4.4 mm 17.5° 1017.1 hPa 4.0 m/s 19.7° 1020.7 hPa 2.2 m/s 4.4 mm
15:00 19.2° 1017.4 hPa 4.6 m/s 4.4 mm 19.0° 1017.1 hPa 4.6 m/s 21.8° 1020.5 hPa 4.2 m/s 4.4 mm
18:00 17.6° 1018.3 hPa 4.0 m/s 4.4 mm 17.4° 1018.1 hPa 4.0 m/s 20.9° 1020.1 hPa 4.0 m/s 4.4 mm
21:00 15.8° 1019.2 hPa 3.4 m/s 4.4 mm 15.7° 1019.1 hPa 3.5 m/s 17.4° 1020.0 hPa 1.9 m/s 4.4 mm
 03:30     23:36    Daglengte: 20:06 Maandag 24 Jun
00:00 12.9° 1020.3 hPa 3.1 m/s 4.4 mm 13.1° 1020.2 hPa 3.3 m/s 11.1° 1021.0 hPa 1.5 m/s 4.4 mm
03:00 10.3° 1021.3 hPa 2.9 m/s 4.4 mm 10.4° 1021.3 hPa 3.1 m/s 9.1° 1021.0 hPa 1.2 m/s 4.4 mm
06:00 11.9° 1022.0 hPa 3.1 m/s 4.4 mm 11.9° 1022.1 hPa 3.2 m/s 11.1° 1020.9 hPa 1.0 m/s 4.4 mm
09:00 13.7° 1022.7 hPa 3.3 m/s 4.4 mm 13.5° 1022.9 hPa 3.4 m/s 16.2° 1020.5 hPa 1.9 m/s 4.4 mm
12:00 15.6° 1023.5 hPa 3.9 m/s 4.5 mm 15.3° 1023.8 hPa 3.9 m/s 18.2° 1020.8 hPa 3.8 m/s 4.5 mm
15:00 17.2° 1024.2 hPa 4.4 m/s 4.5 mm 17.2° 1024.6 hPa 4.4 m/s 17.2° 1020.4 hPa 4.7 m/s 4.5 mm
18:00 16.3° 1025.2 hPa 3.8 m/s 4.5 mm 16.3° 1025.7 hPa 3.8 m/s 16.0° 1020.6 hPa 4.8 m/s 4.5 mm
21:00 15.4° 1026.2 hPa 3.1 m/s 4.5 mm 15.4° 1026.7 hPa 3.1 m/s 15.0° 1020.9 hPa 3.2 m/s 4.5 mm
 03:31     23:35    Daglengte: 20:04 Dinsdag 25 Jun
00:00 12.2° 1027.7 hPa 2.4 m/s 4.5 mm 12.4° 1028.2 hPa 2.4 m/s 9.5° 1022.1 hPa 2.4 m/s 4.5 mm
03:00 9.5° 1029.2 hPa 1.7 m/s 4.5 mm 9.5° 1029.8 hPa 1.6 m/s 9.6° 1022.4 hPa 3.0 m/s 4.5 mm
06:00 12.3° 1029.6 hPa 1.9 m/s 4.6 mm 12.5° 1030.2 hPa 1.6 m/s 10.5° 1022.9 hPa 4.1 m/s 4.6 mm
09:00 15.4° 1030.1 hPa 1.9 m/s 4.6 mm 15.5° 1030.7 hPa 1.7 m/s 14.5° 1024.0 hPa 3.8 m/s 4.6 mm
12:00 17.0° 1029.9 hPa 2.6 m/s 4.6 mm 16.9° 1030.3 hPa 2.4 m/s 17.5° 1025.1 hPa 4.7 m/s 4.6 mm
15:00 18.4° 1029.6 hPa 3.2 m/s 4.6 mm 18.3° 1030.0 hPa 3.1 m/s 18.9° 1025.5 hPa 4.4 m/s 4.6 mm
18:00 17.4° 1029.3 hPa 3.0 m/s 4.6 mm 17.2° 1029.7 hPa 3.0 m/s 18.8° 1025.3 hPa 3.5 m/s 4.6 mm
21:00 16.2° 1028.9 hPa 2.7 m/s 4.6 mm 16.2° 1029.3 hPa 2.8 m/s 15.8° 1024.9 hPa 2.2 m/s 4.6 mm
 03:32     23:35    Daglengte: 20:03 Woensdag 26 Jun
00:00 12.3° 1029.1 hPa 2.7 m/s 4.6 mm 12.5° 1029.4 hPa 2.8 m/s 10.4° 1025.4 hPa 1.4 m/s 4.6 mm
03:00 8.8° 1029.2 hPa 2.7 m/s 4.6 mm 8.8° 1029.6 hPa 2.8 m/s 8.9° 1024.8 hPa 2.0 m/s 4.6 mm
06:00 12.4° 1027.9 hPa 2.9 m/s 4.6 mm 12.5° 1028.2 hPa 3.0 m/s 11.4° 1024.0 hPa 2.3 m/s 4.6 mm
09:00 16.3° 1026.6 hPa 3.1 m/s 4.6 mm 16.2° 1026.9 hPa 3.1 m/s 16.8° 1023.5 hPa 2.8 m/s 4.6 mm
12:00 18.9° 1024.9 hPa 3.6 m/s 4.6 mm 18.8° 1025.1 hPa 3.7 m/s 20.6° 1022.7 hPa 2.8 m/s 4.6 mm
15:00 21.2° 1023.2 hPa 4.3 m/s 4.6 mm 21.3° 1023.3 hPa 4.3 m/s 20.6° 1021.9 hPa 4.1 m/s 4.6 mm
21:00 14.7° 1020.0 hPa 1.9 m/s 4.6 mm 14.5° 1020.0 hPa 1.9 m/s 16.7° 1020.5 hPa 2.3 m/s 4.6 mm
 03:33     23:34    Daglengte: 20:01 Donderdag 27 Jun
03:00 10.2° 1016.2 hPa 3.0 m/s 4.6 mm 10.3° 1015.8 hPa 3.1 m/s 8.6° 1020.7 hPa 1.6 m/s 4.6 mm
09:00 15.7° 1012.2 hPa 2.2 m/s 4.6 mm 15.7° 1011.5 hPa 2.2 m/s 15.1° 1020.3 hPa 2.5 m/s 4.6 mm
15:00 18.3° 1008.1 hPa 4.7 m/s 4.6 mm 18.3° 1007.1 hPa 4.7 m/s 18.2° 1019.1 hPa 4.2 m/s 4.6 mm
21:00 12.6° 1006.5 hPa 3.3 m/s 4.6 mm 12.3° 1005.5 hPa 3.4 m/s 15.4° 1017.4 hPa 2.2 m/s 4.6 mm
 03:34     23:34    Daglengte: 20:00 Vrijdag 28 Jun
03:00 9.4° 1006.4 hPa 4.4 m/s 4.7 mm 9.3° 1005.5 hPa 4.6 m/s 11.0° 1015.9 hPa 1.9 m/s 4.7 mm
09:00 11.7° 1009.1 hPa 6.6 m/s 4.8 mm 11.3° 1008.7 hPa 6.8 m/s 15.8° 1013.5 hPa 3.9 m/s 4.8 mm
15:00 14.8° 1010.5 hPa 5.1 m/s 4.8 mm 14.3° 1010.4 hPa 5.1 m/s 19.8° 1011.7 hPa 4.8 m/s 4.8 mm
21:00 13.8° 1010.5 hPa 1.9 m/s 4.8 mm 13.6° 1010.4 hPa 1.8 m/s 15.9° 1011.7 hPa 2.8 m/s 4.8 mm
 03:35     23:33    Daglengte: 19:58 Zaterdag 29 Jun
03:00 7.3° 1011.3 hPa 2.0 m/s 4.8 mm 7.1° 1011.2 hPa 2.1 m/s 8.9° 1012.8 hPa 0.7 m/s 4.8 mm
09:00 14.5° 1009.6 hPa 1.1 m/s 0.4 mm
15:00 18.2° 1008.6 hPa 1.6 m/s 1.8 mm
21:00 15.8° 1007.9 hPa 1.7 m/s 0.5 mm
 03:36     23:32    Daglengte: 19:56 Zondag 30 Jun
03:00 9.8° 1008.3 hPa 0.3 m/s 0.4 mm
09:00 14.6° 1008.0 hPa 0.1 m/s 0.4 mm
15:00 18.4° 1007.8 hPa 1.2 m/s 0.7 mm
21:00 16.1° 1007.4 hPa 1.5 m/s 1.0 mm
 03:38     23:31    Daglengte: 19:53 Maandag 01 Jul
03:00 10.0° 1007.8 hPa 0.8 m/s 0.1 mm
09:00 14.8° 1007.7 hPa 0.9 m/s 0.3 mm
15:00 18.4° 1007.6 hPa 2.6 m/s 0.8 mm
21:00 16.1° 1007.6 hPa 1.6 m/s 0.6 mm
 03:39     23:30    Daglengte: 19:51 Dinsdag 02 Jul
03:00 10.5° 1008.3 hPa 0.3 m/s 0.3 mm
09:00 15.3° 1008.3 hPa 0.4 m/s 0.2 mm
15:00 19.2° 1008.3 hPa 1.4 m/s 0.4 mm
21:00 16.9° 1008.1 hPa 1.7 m/s 0.7 mm
 03:41     23:29    Daglengte: 19:48 Woensdag 03 Jul
03:00 10.7° 1008.4 hPa 0.4 m/s 0.4 mm
09:00 15.3° 1007.9 hPa 0.4 m/s 0.8 mm
15:00 19.3° 1007.5 hPa 0.9 m/s 0.7 mm
21:00 16.9° 1007.4 hPa 1.2 m/s 1.8 mm
 03:42     23:27    Daglengte: 19:45 Donderdag 04 Jul
03:00 11.5° 1008.1 hPa 0.6 m/s 0.8 mm
09:00 15.7° 1008.7 hPa 0.7 m/s 0.5 mm
FMI Hirlam - 7.5 km EWN WRFDA - 12 km DWD ICON - 7 km GFS - 25 km Basiskaart






























































Updatetijd (Europe/Amsterdam) Resolutie Lengte Stap
FMI Hirlam 13:00, 19:00, 01:00, 07:00 7.5 km 49h 1h
EWN WRFDA 10:15, 16:15, 22:15, 04:15 12 km 73h 1h
DWD ICON 11:45, 17:45, 23:45, 05:45 7 km 75h 1h
GFS 08:45, 14:45, 20:45, 02:45 25 km 237h 3h
30+ mm
25-30 mm
20-25 mm
15-20 mm
10-15 mm
6-10 mm
4-6 mm
2-4 mm
1-2 mm
0.5-1 mm
0.2-0.5 mm
0.1-0.2 mm
30+ mm
25-30 mm
20-25 mm
15-20 mm
10-15 mm
6-10 mm
4-6 mm
2-4 mm
1-2 mm
0.5-1 mm
0.2-0.5 mm
0.1-0.2 mm
Sneeuwval
Natte sneeuw
Hagel
Vorst
30+ mm
25-30 mm
20-25 mm
15-20 mm
10-15 mm
6-10 mm
4-6 mm
2-4 mm
1-2 mm
0.5-1 mm
0.2-0.5 mm
0.1-0.2 mm
Sneeuwval
Natte sneeuw
Hagel
Vorst
Onweer
50 mm
40 mm
30 mm
26 mm
22 mm
18 mm
14 mm
10 mm
9 mm
8 mm
7 mm
6 mm
5 mm
4.5 mm
4 mm
3.5 mm
3 mm
2.5 mm
2 mm
1.5 mm
1 mm
0.8 mm
0.6 mm
0.4 mm
0.2 mm
0.05 mm
35°
30°
25°
20°
15°
10°
-5°
-10°
-15°
-20°
-25°
-30°
-35°
33> m/s
29 m/s
25 m/s
21 m/s
17 m/s
14 m/s
11 m/s
8 m/s
5 m/s
3 m/s
0 m/s
2600 J/kg
2400 J/kg
2200 J/kg
2000 J/kg
1800 J/kg
1600 J/kg
1400 J/kg
1200 J/kg
1000 J/kg
800 J/kg
600 J/kg
400 J/kg
200 J/kg
70 dBZ
65 dBZ
60 dBZ
55 dBZ
50 dBZ
45 dBZ
40 dBZ
35 dBZ
30 dBZ
25 dBZ
20 dBZ
15 dBZ
10 dBZ
5 dBZ
-1 K
-2 K
-3 K
-4 K
-5 K
-6 K
-7 K
-8 K
-9 K
950 m²/s²
900 m²/s²
850 m²/s²
800 m²/s²
750 m²/s²
700 m²/s²
650 m²/s²
600 m²/s²
550 m²/s²
500 m²/s²
450 m²/s²
400 m²/s²
350 m²/s²
300 m²/s²
250 m²/s²
200 m²/s²
150 m²/s²
100 m²/s²
46 m/s
44 m/s
42 m/s
40 m/s
38 m/s
36 m/s
34 m/s
32 m/s
30 m/s
28 m/s
26 m/s
24 m/s
22 m/s
20 m/s
16 m/s
12 m/s
8 m/s
4 m/s
30 m/s
28 m/s
26 m/s
24 m/s
22 m/s
20 m/s
18 m/s
16 m/s
14 m/s
12 m/s
10 m/s
8 m/s
6 m/s
4 m/s
2 m/s
3.0
2.8
2.6
2.4
2.2
2.0
1.8
1.6
1.4
1.2
1.0
0.8
0.6
0.4
0.2
15
14
13
12
11
10
9
8
7
6
5
4
3
2
1
90%
80%
70%
60%
50%
40%
30%
20%
10%
42
40
38
36
34
32
30
28
26
24
22
20
18
16
14
12
90+ cm
80-90 cm
70-80 cm
60-70 cm
50-60 cm
40-50 cm
30-40 cm
20-30 cm
10-20 cm
1-10 cm
Sneeuwval
Natte sneeuw
Regen
>120 mm
115 mm
110 mm
105 mm
100 mm
95 mm
90 mm
85 mm
80 mm
75 mm
70 mm
65 mm
60 mm
55 mm
50 mm
45 mm
45 mm
40 mm
35 mm
30 mm
25 mm
20 mm
15 mm
10 mm
5 mm
0.1 mm
960 hPa
880 hPa
800 hPa
720 hPa
640 hPa
560 hPa
584 gpdm
568 gpdm
552 gpdm
536 gpdm
520 gpdm
504 gpdm
488 gpdm
Extreem zwaar Noodweer Kans op onweer
15% 15% 5% 50% 15%

Dag




Kaart






35°
30°
25°
20°
15°
10°
-5°
-10°
-15°
-20°
-25°
-30°
-35°
33> m/s
29 m/s
25 m/s
21 m/s
17 m/s
14 m/s
11 m/s
8 m/s
5 m/s
3 m/s
0 m/s
Extreem zwaar Noodweer Kans op onweer
15% 15% 5% 50% 15%
>120 mm
115 mm
110 mm
105 mm
100 mm
95 mm
90 mm
85 mm
80 mm
75 mm
70 mm
65 mm
60 mm
55 mm
50 mm
45 mm
45 mm
40 mm
35 mm
30 mm
25 mm
20 mm
15 mm<